Location: Newark
(52.2090°N, 4.1550°W)
Time: 14:23:23
(UTC+00:00)

Explorer 7 - Pass Details

Date: 22 September 2019
Orbit: 485 x 680 km, 50.3° (Epoch: 15 October)

Event Time Altitude Azimuth Distance (km) Brightness Sun altitude
Rises 22:41:02 0° 229° (SW) 2,805 - -34.5°
Reaches altitude 10° 22:43:21 10° 222° (SW) 1,941 - -34.6°
Maximum altitude 22:47:30 39° 154° (SSE) 945 - -34.9°
Drops below altitude 10° 22:51:54 10° 86° (E) 2,054 - -35.2°
Sets 22:54:25 0° 79° (ENE) 2,992 - -35.3°
